(°C)
(°C)
NNW
NNW
NNW
NNW
N
N
NNW
(km/h)
13-25
15-26
14-25
14-24
13-21
11-20
10-16
(mm)
0
0
0.2
1.1
0
0
0
(%)
42
32
37
31
21
11
6

Sun elevation

/ 41°
sun-icon
UV 3
06:25
20:19
Sierp przybywający (26°)
07:32
22:59

METAR for Bordenau (ETNW)

Czas Conditions Temperatura/
Punkt rosy
Wiatr Widzialność Pogoda Chmury Ciśn. atm. Change Raw
VFR 6°C / 2°C 20º 13kt >10km - Few Clouds 2500ft 1029 Temporary: Hail . ETNW 141220Z 02013KT 9999 FEW025CB SCT050 06/02 Q1029 BLU+BLU+ TEMPO GRN
VFR 8°C / -2°C 290º 9kt >10km - Few Clouds 2000ft 1029 Temporary: Hail . ETNW 141120Z 29009KT 9999 FEW020CB SCT025TCU 08/M02 Q1029 BLU+BLU+ TEMPO GRN
VFR 6°C / 2°C variable 1kt >10km - Few Clouds 1800ft 1029 Temporary: Hail . ETNW 141020Z VRB01KT 9999 FEW018CB SCT030 06/02 Q1029 RESHGS BLU+BLU+ TEMPO GRN
VFR 3°C / 1°C 320º 1kt >10km - Few Clouds 1800ft 1030 Temporary: Hail . ETNW 140959Z 32001KT 9999 FEW018CB SCT030 03/01 Q1030 RESHGS BLU+BLU+ TEMPO GRN
MVFR 6°C / 0°C 10º 8kt >10km Light Showers Small Hail and/or Snow Light Showers Rain Scattered Clouds 2000ft 1030 Temporary: Hail . ETNW 140924Z 01008KT 9999 -SHGSRA SCT020CB BKN023 06/00 Q1030 WHT BLU+ TEMPO GRN
MVFR 6°C / -1°C 10º 8kt >10km in the Vicinity Showers Few Clouds 2000ft 1030 Temporary: Hail . ETNW 140920Z 01008KT 9999 VCSH FEW020CB BKN023 06/M01 Q1030 WHT BLU+ TEMPO GRN
MVFR 6°C / 1°C 340º 5kt >10km in the Vicinity Showers Few Clouds 1500ft 1030 Temporary: Hail . ETNW 140905Z 34005KT 9999 VCSH FEW015 FEW018CB BKN020 06/01 Q1030 WHT BLU+ TEMPO GRN
VFR 5°C / 1°C 310º 7kt >10km - Scattered Clouds 1800ft 1030 - ETNW 140820Z 31007KT 9999 SCT018 SCT048 05/01 Q1030 BLU+BLU+
VFR 4°C / 1°C 300º 7kt >10km in the Vicinity Showers Few Clouds 1800ft 1030 - ETNW 140720Z 30007KT 9999 VCSH FEW018 SCT050 04/01 Q1030 BLU+BLU+
VFR 2°C / 1°C 280º 5kt >10km - Few Clouds 1800ft 1030 - ETNW 140620Z 28005KT 9999 FEW018 SCT050 02/01 Q1030 BLU+BLU+
VFR 2°C / 1°C 270º 4kt >10km - Few Clouds 1800ft 1030 - ETNW 140520Z 27004KT 9999 FEW018 SCT060 02/01 Q1030 BLU+BLU+
VFR 1°C / 0°C 270º 5kt >10km - Few Clouds 1800ft 1029 - ETNW 140420Z 27005KT 9999 FEW018 01/00 Q1029 BLU+BLU+
1°C / 0°C 270º 4kt 1700m - 1029 - ETNW 140320Z AUTO 27004KT 1700 // ////// 01/00 Q1029 ///
2°C / 0°C 290º 6kt 2200m - 1029 - ETNW 140220Z AUTO 29006KT 2200 // ////// 02/00 Q1029 ///
2°C / 0°C 280º 4kt 1800m - 1030 - ETNW 140120Z AUTO 28004KT 1800 // ////// 02/00 Q1030 ///
1°C / 0°C 280º 6kt 1800m - 1030 - ETNW 140020Z AUTO 28006KT 1800 // ////// 01/M00 Q1030 ///
1°C / 0°C 280º 6kt 1800m - 1030 - ETNW 132320Z AUTO 28006KT 1800 // ////// 01/M00 Q1030 ///
2°C / 1°C 280º 4kt 1800m - 1030 - ETNW 132220Z AUTO 28004KT 1800 // ////// 02/01 Q1030 ///
3°C / 0°C 270º 4kt 2200m - 1030 - ETNW 132120Z AUTO 27004KT 2200 // ////// 03/00 Q1030 ///
VFR 3°C / 0°C 310º 7kt >10km - Few Clouds 4000ft 1030 - ETNW 132030Z 31007KT 9999 FEW040 03/00 Q1030 BLU+FCST CNL
VFR 4°C / 0°C 310º 6kt >10km - Few Clouds 4000ft 1030 - ETNW 132020Z 31006KT 9999 FEW040 04/00 Q1030 BLU+BLU+
VFR 4°C / 1°C 340º 6kt >10km - Few Clouds 2800ft 1030 - ETNW 131920Z 34006KT 9999 FEW028CB 04/01 Q1030 BLU+BLU+
VFR 5°C / 1°C 340º 3kt >10km - Few Clouds 3000ft 1029 Temporary: WHT ETNW 131820Z 34003KT 9999 FEW030CB 05/01 Q1029 BLU+BLU+ TEMPO WHT
VFR 6°C / 1°C 280º 9kt >10km - Few Clouds 3000ft 1029 Temporary: WHT ETNW 131720Z 28009KT 9999 FEW030CB 06/01 Q1029 BLU+BLU+ TEMPO WHT

VFR

6°C / 2°C

[Więcej]
Wiatr 20º 13kt
Widzialność >10km
Pogoda -
Chmury Few Clouds 2500ft
Ciśn. atm. 1029
Change Temporary: Hail .
Raw ETNW 141220Z 02013KT 9999 FEW025CB SCT050 06/02 Q1029 BLU+BLU+ TEMPO GRN

VFR

8°C / -2°C

[Więcej]
Wiatr 290º 9kt
Widzialność >10km
Pogoda -
Chmury Few Clouds 2000ft
Ciśn. atm. 1029
Change Temporary: Hail .
Raw ETNW 141120Z 29009KT 9999 FEW020CB SCT025TCU 08/M02 Q1029 BLU+BLU+ TEMPO GRN

VFR

6°C / 2°C

[Więcej]
Wiatr variable 1kt
Widzialność >10km
Pogoda -
Chmury Few Clouds 1800ft
Ciśn. atm. 1029
Change Temporary: Hail .
Raw ETNW 141020Z VRB01KT 9999 FEW018CB SCT030 06/02 Q1029 RESHGS BLU+BLU+ TEMPO GRN

VFR

3°C / 1°C

[Więcej]
Wiatr 320º 1kt
Widzialność >10km
Pogoda -
Chmury Few Clouds 1800ft
Ciśn. atm. 1030
Change Temporary: Hail .
Raw ETNW 140959Z 32001KT 9999 FEW018CB SCT030 03/01 Q1030 RESHGS BLU+BLU+ TEMPO GRN

MVFR

6°C / 0°C

[Więcej]
Wiatr 10º 8kt
Widzialność >10km
Pogoda Light Showers Small Hail and/or Snow Light Showers Rain
Chmury Scattered Clouds 2000ft
Ciśn. atm. 1030
Change Temporary: Hail .
Raw ETNW 140924Z 01008KT 9999 -SHGSRA SCT020CB BKN023 06/00 Q1030 WHT BLU+ TEMPO GRN

MVFR

6°C / -1°C

[Więcej]
Wiatr 10º 8kt
Widzialność >10km
Pogoda in the Vicinity Showers
Chmury Few Clouds 2000ft
Ciśn. atm. 1030
Change Temporary: Hail .
Raw ETNW 140920Z 01008KT 9999 VCSH FEW020CB BKN023 06/M01 Q1030 WHT BLU+ TEMPO GRN

MVFR

6°C / 1°C

[Więcej]
Wiatr 340º 5kt
Widzialność >10km
Pogoda in the Vicinity Showers
Chmury Few Clouds 1500ft
Ciśn. atm. 1030
Change Temporary: Hail .
Raw ETNW 140905Z 34005KT 9999 VCSH FEW015 FEW018CB BKN020 06/01 Q1030 WHT BLU+ TEMPO GRN

VFR

5°C / 1°C

[Więcej]
Wiatr 310º 7kt
Widzialność >10km
Pogoda -
Chmury Scattered Clouds 1800ft
Ciśn. atm. 1030
Change -
Raw ETNW 140820Z 31007KT 9999 SCT018 SCT048 05/01 Q1030 BLU+BLU+

VFR

4°C / 1°C

[Więcej]
Wiatr 300º 7kt
Widzialność >10km
Pogoda in the Vicinity Showers
Chmury Few Clouds 1800ft
Ciśn. atm. 1030
Change -
Raw ETNW 140720Z 30007KT 9999 VCSH FEW018 SCT050 04/01 Q1030 BLU+BLU+

VFR

2°C / 1°C

[Więcej]
Wiatr 280º 5kt
Widzialność >10km
Pogoda -
Chmury Few Clouds 1800ft
Ciśn. atm. 1030
Change -
Raw ETNW 140620Z 28005KT 9999 FEW018 SCT050 02/01 Q1030 BLU+BLU+

VFR

2°C / 1°C

[Więcej]
Wiatr 270º 4kt
Widzialność >10km
Pogoda -
Chmury Few Clouds 1800ft
Ciśn. atm. 1030
Change -
Raw ETNW 140520Z 27004KT 9999 FEW018 SCT060 02/01 Q1030 BLU+BLU+

VFR

1°C / 0°C

[Więcej]
Wiatr 270º 5kt
Widzialność >10km
Pogoda -
Chmury Few Clouds 1800ft
Ciśn. atm. 1029
Change -
Raw ETNW 140420Z 27005KT 9999 FEW018 01/00 Q1029 BLU+BLU+

1°C / 0°C

[Więcej]
Wiatr 270º 4kt
Widzialność 1700m
Pogoda -
Chmury
Ciśn. atm. 1029
Change -
Raw ETNW 140320Z AUTO 27004KT 1700 // ////// 01/00 Q1029 ///

2°C / 0°C

[Więcej]
Wiatr 290º 6kt
Widzialność 2200m
Pogoda -
Chmury
Ciśn. atm. 1029
Change -
Raw ETNW 140220Z AUTO 29006KT 2200 // ////// 02/00 Q1029 ///

2°C / 0°C

[Więcej]
Wiatr 280º 4kt
Widzialność 1800m
Pogoda -
Chmury
Ciśn. atm. 1030
Change -
Raw ETNW 140120Z AUTO 28004KT 1800 // ////// 02/00 Q1030 ///

1°C / 0°C

[Więcej]
Wiatr 280º 6kt
Widzialność 1800m
Pogoda -
Chmury
Ciśn. atm. 1030
Change -
Raw ETNW 140020Z AUTO 28006KT 1800 // ////// 01/M00 Q1030 ///

1°C / 0°C

[Więcej]
Wiatr 280º 6kt
Widzialność 1800m
Pogoda -
Chmury
Ciśn. atm. 1030
Change -
Raw ETNW 132320Z AUTO 28006KT 1800 // ////// 01/M00 Q1030 ///

2°C / 1°C

[Więcej]
Wiatr 280º 4kt
Widzialność 1800m
Pogoda -
Chmury
Ciśn. atm. 1030
Change -
Raw ETNW 132220Z AUTO 28004KT 1800 // ////// 02/01 Q1030 ///

3°C / 0°C

[Więcej]
Wiatr 270º 4kt
Widzialność 2200m
Pogoda -
Chmury
Ciśn. atm. 1030
Change -
Raw ETNW 132120Z AUTO 27004KT 2200 // ////// 03/00 Q1030 ///

VFR

3°C / 0°C

[Więcej]
Wiatr 310º 7kt
Widzialność >10km
Pogoda -
Chmury Few Clouds 4000ft
Ciśn. atm. 1030
Change -
Raw ETNW 132030Z 31007KT 9999 FEW040 03/00 Q1030 BLU+FCST CNL

VFR

4°C / 0°C

[Więcej]
Wiatr 310º 6kt
Widzialność >10km
Pogoda -
Chmury Few Clouds 4000ft
Ciśn. atm. 1030
Change -
Raw ETNW 132020Z 31006KT 9999 FEW040 04/00 Q1030 BLU+BLU+

VFR

4°C / 1°C

[Więcej]
Wiatr 340º 6kt
Widzialność >10km
Pogoda -
Chmury Few Clouds 2800ft
Ciśn. atm. 1030
Change -
Raw ETNW 131920Z 34006KT 9999 FEW028CB 04/01 Q1030 BLU+BLU+

VFR

5°C / 1°C

[Więcej]
Wiatr 340º 3kt
Widzialność >10km
Pogoda -
Chmury Few Clouds 3000ft
Ciśn. atm. 1029
Change Temporary: WHT
Raw ETNW 131820Z 34003KT 9999 FEW030CB 05/01 Q1029 BLU+BLU+ TEMPO WHT

VFR

6°C / 1°C

[Więcej]
Wiatr 280º 9kt
Widzialność >10km
Pogoda -
Chmury Few Clouds 3000ft
Ciśn. atm. 1029
Change Temporary: WHT
Raw ETNW 131720Z 28009KT 9999 FEW030CB 06/01 Q1029 BLU+BLU+ TEMPO WHT

TAF for Bordenau (ETNW)

From till


From till Wind 320º 8kt. Visibility 10km or more. Scattered Clouds 3000ft.
Temporarly from till Wind 330º 12kt. Gust 22kt. Visibility 4000m. Showers Rain Showers Small Hail and/or Snow . Broken Clouds 1500ft. Broken Clouds 2000ft.
Becoming from till Wind 340º 4kt. Visibility 5000m. Mist . Few Clouds 3000ft.
Temporarly from till Wind variable 2kt. Visibility 498.895m. freezing Fog . Broken Clouds 100ft.
Becoming from till Wind 30º 7kt. Visibility 10km or more. Broken Clouds 18000ft.

Raw: TAF ETNW 141020Z 1411/1511 32008KT 9999 NSW SCT030 TEMPO 1411/1418 33012G22KT 4000 SHRAGS BKN015 BKN020CB BECMG 1422/1424 34004KT 5000 BR FEW030 TEMPO 1500/1507 VRB02KT 0500 FZFG BKN001 BECMG 1507/1509 03007KT 9999 NSW BKN180 BY ETGL

Current satellite and rain images for Bordenau, Niemcy

  • Opady:
  • <1 mm
  • 1-2 mm
  • 2-5 mm
  • >5 mm

Wskaźnik lokalizacji znajduje się na Bordenau. [Więcej]

The real-time satellite image combines visible light during daytime with infrared radiation during nighttime. At night, the image is not dark as infrared radiation can detect temperature differences. Unfortunately, low clouds and fog are difficult to distinguish from ground temperatures and thus can be almost invisible during the night. Meteosat satellite images for Europe are updated in real-time every 5 minutes. GOES-16/GOES-17 (North & South America) and Himawari (Asia) images update every 10 minutes.

Opady zostały oszacowane na podstawie danych radarowych i satelitarnych. Szacunkowe dane opadów nocnych są mniej dokładne niż dane w ciągu dnia. Pomarańczowe krzyżyki oznaczają miejsca, gdzie zaobserwowano pioruny (nad Europa).

Prawa autorskie 2021 EUMETSAT / meteoblue. Dane dot. błyskawic dostarczone przez nowcast.

Radar dla Bordenau

Wskaźnik lokalizacji jest umieszczony na Bordenau. Animacja przedstawia radar opadów dla ostatniej godziny, jak również 2h prognozę pogody. Mżawka i lekkie opady mogą być niewidoczne na radarze. Intensywność opadów jest oznaczona kolorami od jasnoniebieskiego do ciemnofioletowego.
Copyright 2021 Deutscher Wetterdienst / meteoblue.

Obecny stan pogody i ostrzeżenia

EUMETNET – MeteoAlarm

pictomap

Źródło: DWD

Możliwe są opóźnienia pomiędzy tą stroną a stroną www.meteoalarm.eu. W celu uzyskania bardziej aktualnych informacji na temat alertów pogodowych publikowanych przez państwowe służby meteorologiczne, prosimy wejść na stronę www.meteoalarm.eu.